Regional Weather Roundup
Issued by NWS Spokane, WA

Home | Current Version | Previous Version | Text Only | Print | Product List | Glossary On
Versions: 1 2 3 4 5 6 7 8 9 10 11 12 13 14 15 16 17 18 19 20 21 22 23 24 25 26 27 28 29 30 31 32 33 34 35 36 37 38 39 40 41 42 43 44 45 46 47 48 49 50
000
NZUS01 KOTX 260025
RWROTX

Eastern Washington/Northern Idaho Roundup
National Weather Service, Spokane WA
500 PM PDT MON SEP 25 2017

Note: "fair" indicated few or no clouds below 12,000 feet with no
significant weather and/or obstructions to visibility.

...Northeast Washington and Northern Idaho Panhandle...

CITY           SKY/WX    TMP DP  RH WIND       PRES   REMARKS
Spokane Intl   PTSUNNY   67  44  43 SW12      30.04S
Spokane Downto PTSUNNY   69  44  40 S5        30.03F
Coeur d Alene  PTSUNNY   64  44  48 SE6       30.06F
Deer Park      PTSUNNY   67  43  41 S3        30.04S
Sandpoint      CLOUDY    63  45  51 SW5       30.05S
Bonners Ferry  FAIR      61  46  59 W3        30.03S

...Southeast Washington and southern Idaho Panhandle...

CITY           SKY/WX    TMP DP  RH WIND       PRES   REMARKS
Walla Walla    CLOUDY    72  46  39 W7        30.03S
Pullman/Moscow PTSUNNY   66  41  40 VRB6      30.07F
Lewiston       MOSUNNY   71  43  36 E6        30.03S
Lowell           N/A     60  49  66 CALM      30.08F
Grangeville    CLOUDY    59  41  51 E7        30.09S

...Columbia Basin...

CITY           SKY/WX    TMP DP  RH WIND       PRES   REMARKS
Ephrata        PTSUNNY   71  44  37 S7        30.01S
Moses Lake     CLOUDY    69  45  41 SW5       30.02F
Pasco          CLOUDY    74  47  38 CALM      30.01F
Richland       LGT RAIN  74  49  42 E3        30.01S
Hermiston      PTSUNNY   73  48  41 CALM      30.01F
Pendleton      CLOUDY    69  46  43 NW7       30.04S

...East Slopes Cascades...

CITY           SKY/WX    TMP DP  RH WIND       PRES   REMARKS
The Dalles     PTSUNNY   70  50  49 NW17G24   30.04R
Yakima         CLOUDY    74  46  36 CALM      30.02F
Ellensburg     PTSUNNY   67  48  50 NW20G29   30.03F
Stampede Pass  CLOUDY    50  48  93 CALM      30.14F
Wenatchee      CLOUDY    67  48  50 E6        30.01F
Omak           CLOUDY    70  45  40 CALM      30.01S
Chelan           N/A     70  45  40 SE6         N/A
Sunnyside      CLOUDY    67  54  63 CALM      30.01F

...Southern British Columbia...

CITY           SKY/WX    TMP DP  RH WIND       PRES   REMARKS
Penticton      PTSUNNY   63  50  63 N7        30.02R
Castlegar      PTSUNNY   64  45  48 N8        30.00S
Cranbrook      PTSUNNY   63  39  42 VRB2      30.00S
Osoyoos          N/A     68  50  52 CALM        N/A
Creston          N/A     61  46  59 W1          N/A

...Western Montana...

CITY           SKY/WX    TMP DP  RH WIND       PRES   REMARKS
Kalispell      CLOUDY    56  47  71 S8        30.04F
Missoula       LGT RAIN  54  45  71 NE5       30.09F

...Neighboring Cities...

CITY           SKY/WX    TMP DP  RH WIND       PRES   REMARKS
Seattle        CLOUDY    64  54  69 S5        30.11F
Portland       CLOUDY    67  56  67 NW5       30.10F
Boise          SUNNY     66  32  28 W9        30.06F
Great Falls    PTSUNNY   60  31  33 W3        30.00F
Calgary        PTSUNNY   64  39  39 E6        29.94S



USA.gov is the U.S. government's official web portal to all federal, state and local government web resources and services.